Regional Weather Roundup
Issued by NWS Little Rock, AR

Home | Current Version | Previous Version | Graphics & Text | Print | Product List | Glossary On
Versions: 1 2 3 4 5 6 7 8 9 10 11 12 13 14 15 16 17 18 19 20 21 22 23 24 25 26 27 28 29 30 31 32 33 34 35 36 37 38 39 40 41 42 43 44 45 46 47 48 49 50
000
ASUS44 KLZK 181105
RWRLZK

WEATHER ROUNDUP FOR ARKANSAS
NATIONAL WEATHER SERVICE LITTLE ROCK AR
500 AM CST THU DEC 18 2014

NOTE: "FAIR" INDICATES FEW OR NO CLOUDS BELOW 12,000 FEET WITH NO
SIGNIFICANT WEATHER AND/OR OBSTRUCTIONS TO VISIBILITY.

ARZ001-003-010-029-181200-
NORTHWEST ARKANSAS

CITY           SKY/WX    TMP DP  RH WIND       PRES   REMARKS
FAYETTEVILLE   CLOUDY    36  34  92 S3        30.14F
FORT SMITH     CLOUDY    37  35  92 E9        30.17F FOG
HARRISON       CLOUDY    33  33 100 E6        30.16R WCI  28
BENTONVILLE    CLOUDY    37  34  87 SE5       30.14F
ROGERS         MIX PCPN  36  35  96 SE5       30.15S
SILOAM SPGS    CLOUDY    36  30  80 CALM      30.15F
HIGHFILL       CLOUDY    36  36 100 S6        30.13F
$$

ARZ004-005-016-181200-
NORTH CENTRAL ARKANSAS

CITY           SKY/WX    TMP DP  RH WIND       PRES   REMARKS
BATESVILLE     CLOUDY    36  32  87 E5        30.21F
FLIPPIN        CLOUDY    34  28  80 E5        30.20R WCI  30
MTN HOME       CLOUDY    33  33 100 E6        30.19R WCI  28
$$

ARZ040-041-181200-
WEST CENTRAL ARKANSAS

CITY           SKY/WX    TMP DP  RH WIND       PRES   REMARKS
MENA           CLOUDY    37  37 100 CALM      30.15F
MOUNT IDA      CLOUDY    37  36  96 CALM      30.14F FOG
$$

ARZ009-017-025-026-028-181200-
NORTHEAST ARKANSAS

CITY           SKY/WX    TMP DP  RH WIND       PRES   REMARKS
JONESBORO      LGT RAIN  37  36  96 E7        30.22F
NEWPORT        LGT RAIN  37  36  96 E5        30.24S VSB 1
WALNUT RIDGE   CLOUDY    36  32  87 E7        30.23S
BLYTHEVILLE    LGT RAIN  37  35  92 E6        30.24F
$$

ARZ022-023-033-042-044-181200-
CENTRAL ARKANSAS

CITY           SKY/WX    TMP DP  RH WIND       PRES   REMARKS
LITTLE ROCK    LGT RAIN  38  34  85 E6        30.21F
N LITTLE ROCK    N/A     36  36 100 E8        30.21F
JACKSONVILLE   CLOUDY    37  36  97 E7        30.20F
SEARCY         LGT RAIN  37  35  92 E7        30.22F
HOT SPRINGS    CLOUDY    37  36  96 E5        30.19F
RUSSELLVILLE   CLOUDY    36  33  89 E5        30.20S
CLINTON        CLOUDY    36  34  93 CALM      30.23R
$$

ARZ036-181200-
EAST ARKANSAS

CITY           SKY/WX    TMP DP  RH WIND       PRES   REMARKS
WEST MEMPHIS   LGT RAIN  37  36  96 NE7       30.21F
$$

ARZ050-053-066-070-073-181200-
SOUTHWEST ARKANSAS

CITY           SKY/WX    TMP DP  RH WIND       PRES   REMARKS
ARKADELPHIA    LGT RAIN  38  38 100 NE3       30.20F FOG
CAMDEN         LGT RAIN  39  37  93 MISG      30.21F
TEXARKANA      CLOUDY    38  38 100 E10G17    30.16F
EL DORADO      CLOUDY    40  39  97 N6        30.19F
DE QUEEN       CLOUDY    39  38  96 E5        30.16F FOG
$$

ARZ056-057-069-181200-
SOUTHEAST ARKANSAS

CITY           SKY/WX    TMP DP  RH WIND       PRES   REMARKS
PINE BLUFF     LGT RAIN  39  36  89 SE7       30.19S FOG
STUTTGART      CLOUDY    37  36  93 NE8       30.21S
MONTICELLO     LGT RAIN  40  38  93 NE7       30.19S FOG

$$




USA.gov is the U.S. government's official web portal to all federal, state and local government web resources and services.